When you browse on this site, cookies collect data to enhance your experience and personalize the content and advertising you see.
Visit our Privacy Policy to learn more. By continuing to use the site, you agree to this use of cookies and data.
  • In Italy
  • List of Countries
  • For 7 days
  • Water Temperature
  • Satellite Maps
  • Weather Map
  • Weather Widgets
  • user-avatar
    Login

    Hourly Weather Tychnowy

    Today, 20 April, Saturday

    Time Temperature Precipitation Wind Pressure Humidity
    00:00 +3°C° 0 mm 2 mps 768 mmHg 68%
    01:00 +3°C° 0 mm 3 mps 767 mmHg 74%
    02:00 +4°C° 0 mm 2 mps 767 mmHg 77%
    03:00 +3°C° 0 mm 2 mps 767 mmHg 80%
    04:00 +3°C° 0 mm 2 mps 767 mmHg 82%
    05:00 +4°C° 0 mm 3 mps 767 mmHg 78%
    06:00 +7°C° 0 mm 3 mps 767 mmHg 74%
    07:00 +8°C° 0 mm 3 mps 768 mmHg 68%
    08:00 +10°C° 0 mm 3 mps 767 mmHg 62%
    09:00 +12°C° 0 mm 4 mps 767 mmHg 55%
    10:00 +14°C° 0 mm 4 mps 767 mmHg 49%
    11:00 +15°C° 0 mm 4 mps 767 mmHg 46%
    12:00 +15°C° 0 mm 5 mps 767 mmHg 43%
    13:00 +15°C° 0 mm 5 mps 766 mmHg 40%
    14:00 +15°C° 0 mm 5 mps 766 mmHg 41%
    15:00 +14°C° 0 mm 5 mps 766 mmHg 43%
    16:00 +14°C° 0 mm 5 mps 765 mmHg 44%
    17:00 +12°C° 0 mm 4 mps 765 mmHg 50%
    18:00 +10°C° 0 mm 4 mps 765 mmHg 56%
    19:00 +7°C° 0 mm 3 mps 765 mmHg 63%
    20:00 +7°C° 0 mm 3 mps 765 mmHg 64%
    21:00 +6°C° 0 mm 2 mps 765 mmHg 66%
    22:00 +5°C° 0 mm 2 mps 765 mmHg 67%
    23:00 +5°C° 0 mm 2 mps 765 mmHg 67%

    Tomorrow, 21 April, Sunday

    Time Temperature Precipitation Wind Pressure Humidity
    00:00 +5°C° 0 mm 2 mps 764 mmHg 67%
    01:00 +4°C° 0 mm 2 mps 764 mmHg 67%
    02:00 +4°C° 0 mm 2 mps 764 mmHg 66%
    03:00 +4°C° 0 mm 2 mps 763 mmHg 66%
    04:00 +4°C° 0 mm 2 mps 763 mmHg 65%
    05:00 +5°C° 0 mm 2 mps 763 mmHg 62%
    06:00 +7°C° 0 mm 2 mps 763 mmHg 58%
    07:00 +9°C° 0 mm 2 mps 763 mmHg 55%
    08:00 +10°C° 0 mm 2 mps 762 mmHg 51%
    09:00 +13°C° 0 mm 2 mps 762 mmHg 46%
    10:00 +15°C° 0 mm 2 mps 762 mmHg 42%
    11:00 +16°C° 0 mm 2 mps 762 mmHg 41%
    12:00 +17°C° 0 mm 2 mps 761 mmHg 40%
    13:00 +18°C° 0 mm 2 mps 761 mmHg 38%
    14:00 +17°C° 0 mm 3 mps 760 mmHg 43%
    15:00 +15°C° 0 mm 4 mps 760 mmHg 47%
    16:00 +15°C° 0 mm 5 mps 760 mmHg 52%
    17:00 +13°C° 0 mm 4 mps 760 mmHg 59%
    18:00 +11°C° 0 mm 3 mps 760 mmHg 67%
    19:00 +9°C° 0 mm 2 mps 760 mmHg 75%
    20:00 +8°C° 0 mm 2 mps 760 mmHg 78%
    21:00 +6°C° 0 mm 2 mps 760 mmHg 82%
    22:00 +5°C° 0 mm 2 mps 760 mmHg 86%
    23:00 +5°C° 0 mm 2 mps 760 mmHg 83%

    Day after tomorrow, 22 April, Monday

    Time Temperature Precipitation Wind Pressure Humidity
    00:00 +5°C° 0 mm 2 mps 760 mmHg 79%
    01:00 +4°C° 0 mm 2 mps 760 mmHg 76%
    02:00 +4°C° 0 mm 2 mps 760 mmHg 76%
    03:00 +4°C° 0 mm 2 mps 760 mmHg 77%
    04:00 +4°C° 0 mm 2 mps 759 mmHg 78%
    05:00 +4°C° 0 mm 3 mps 760 mmHg 78%
    06:00 +7°C° 0 mm 3 mps 760 mmHg 78%
    07:00 +8°C° 0 mm 3 mps 760 mmHg 78%
    08:00 +10°C° 0 mm 4 mps 760 mmHg 69%
    09:00 +12°C° 0 mm 4 mps 760 mmHg 60%
    10:00 +15°C° 0 mm 5 mps 760 mmHg 51%
    11:00 +15°C° 0 mm 5 mps 760 mmHg 50%
    12:00 +16°C° 0 mm 5 mps 760 mmHg 48%
    13:00 +17°C° 0 mm 5 mps 760 mmHg 47%
    14:00 +17°C° 0 mm 5 mps 760 mmHg 48%
    15:00 +17°C° 0 mm 5 mps 760 mmHg 50%
    16:00 +17°C° 0 mm 5 mps 759 mmHg 52%
    17:00 +15°C° 0 mm 5 mps 759 mmHg 58%
    18:00 +14°C° 0 mm 4 mps 760 mmHg 64%
    19:00 +12°C° 0 mm 3 mps 760 mmHg 70%
    20:00 +12°C° 0 mm 4 mps 760 mmHg 70%
    21:00 +11°C° 0 mm 4 mps 760 mmHg 69%
    22:00 +10°C° 0 mm 4 mps 761 mmHg 68%
    23:00 +10°C° 0 mm 4 mps 760 mmHg 67%

    23 April, Tuesday

    Time Temperature Precipitation Wind Pressure Humidity
    00:00 +8°C° 0 mm 5 mps 760 mmHg 65%
    01:00 +8°C° 0 mm 5 mps 760 mmHg 63%
    02:00 +7°C° 0 mm 5 mps 760 mmHg 62%
    03:00 +7°C° 0 mm 5 mps 760 mmHg 61%
    04:00 +6°C° 0 mm 5 mps 760 mmHg 61%
    05:00 +7°C° 0 mm 6 mps 760 mmHg 59%
    06:00 +8°C° 0 mm 7 mps 760 mmHg 57%
    07:00 +9°C° 0 mm 8 mps 760 mmHg 55%
    08:00 +11°C° 0 mm 9 mps 759 mmHg 52%
    09:00 +12°C° 0 mm 9 mps 759 mmHg 48%
    10:00 +13°C° 0 mm 10 mps 759 mmHg 44%
    11:00 +14°C° 0 mm 10 mps 759 mmHg 43%
    12:00 +16°C° 0 mm 10 mps 758 mmHg 42%
    13:00 +16°C° 0 mm 10 mps 758 mmHg 41%
    14:00 +16°C° 0 mm 10 mps 757 mmHg 42%
    15:00 +16°C° 0 mm 10 mps 757 mmHg 43%
    16:00 +16°C° 0 mm 9 mps 757 mmHg 45%
    17:00 +15°C° 0 mm 8 mps 756 mmHg 48%
    18:00 +14°C° 0 mm 7 mps 756 mmHg 52%
    19:00 +11°C° 0 mm 6 mps 756 mmHg 56%
    20:00 +11°C° 0 mm 7 mps 756 mmHg 55%
    21:00 +11°C° 0 mm 7 mps 756 mmHg 54%
    22:00 +11°C° 0 mm 8 mps 756 mmHg 53%
    23:00 +11°C° 0 mm 8 mps 756 mmHg 54%

    24 April, Wednesday

    Time Temperature Precipitation Wind Pressure Humidity
    00:00 +11°C° 0 mm 8 mps 755 mmHg 54%
    01:00 +11°C° 0 mm 8 mps 755 mmHg 54%
    02:00 +10°C° 0 mm 8 mps 755 mmHg 55%
    03:00 +10°C° 0 mm 8 mps 755 mmHg 57%
    04:00 +10°C° 0 mm 8 mps 754 mmHg 58%
    05:00 +10°C° 0 mm 8 mps 754 mmHg 61%
    06:00 +10°C° 0 mm 9 mps 754 mmHg 63%
    07:00 +10°C° 0 mm 9 mps 754 mmHg 65%
    08:00 +12°C° 0 mm 9 mps 754 mmHg 63%
    09:00 +13°C° 0 mm 9 mps 754 mmHg 60%
    10:00 +16°C° 0 mm 10 mps 754 mmHg 58%
    11:00 +16°C° 0 mm 10 mps 754 mmHg 58%
    12:00 +17°C° 0 mm 10 mps 754 mmHg 57%
    13:00 +18°C° 0 mm 9 mps 754 mmHg 57%
    14:00 +18°C° 0 mm 8 mps 754 mmHg 58%
    15:00 +20°C° 0 mm 7 mps 754 mmHg 59%
    16:00 +20°C° 0 mm 6 mps 754 mmHg 60%
    17:00 +19°C° 0 mm 6 mps 754 mmHg 62%
    18:00 +17°C° 0 mm 6 mps 754 mmHg 65%
    19:00 +17°C° 0 mm 5 mps 754 mmHg 67%
    20:00 +16°C° 0 mm 5 mps 754 mmHg 68%
    21:00 +15°C° 0 mm 6 mps 754 mmHg 69%
    22:00 +14°C° 0 mm 6 mps 755 mmHg 70%
    23:00 +14°C° 0 mm 6 mps 755 mmHg 73%

    25 April, Thursday

    Time Temperature Precipitation Wind Pressure Humidity
    00:00 +13°C° 0 mm 5 mps 755 mmHg 75%
    01:00 +12°C° 0 mm 5 mps 755 mmHg 78%
    02:00 +12°C° 0 mm 5 mps 755 mmHg 79%
    03:00 +12°C° 0 mm 5 mps 755 mmHg 81%
    04:00 +12°C° 0 mm 5 mps 755 mmHg 82%
    05:00 +13°C° 0 mm 5 mps 755 mmHg 80%
    06:00 +14°C° 0 mm 5 mps 755 mmHg 78%
    07:00 +15°C° 0 mm 6 mps 755 mmHg 75%
    08:00 +16°C° 0 mm 6 mps 755 mmHg 71%
    09:00 +19°C° 0 mm 6 mps 755 mmHg 66%
    10:00 +21°C° 0 mm 6 mps 755 mmHg 62%
    11:00 +22°C° 0 mm 6 mps 755 mmHg 59%
    12:00 +23°C° 0 mm 6 mps 754 mmHg 55%
    13:00 +24°C° 0 mm 6 mps 754 mmHg 52%
    14:00 +23°C° 0 mm 5 mps 754 mmHg 54%
    15:00 +23°C° 0 mm 4 mps 754 mmHg 56%
    16:00 +24°C° 0 mm 3 mps 753 mmHg 58%
    17:00 +22°C° 0 mm 3 mps 753 mmHg 61%
    18:00 +21°C° 0 mm 3 mps 753 mmHg 64%
    19:00 +20°C° 0 mm 3 mps 753 mmHg 67%
    20:00 +19°C° 0 mm 3 mps 753 mmHg 68%
    21:00 +19°C° 0 mm 4 mps 753 mmHg 70%
    22:00 +18°C° 0 mm 4 mps 753 mmHg 72%
    23:00 +17°C° 0 mm 4 mps 753 mmHg 76%
    Show more